[[{"header":{"parameterUnit":"m.s-1","parameterCategory":1,"la1":30.2991,"la2":30.254,"lo1":-89.0895,"lo2":-89.0444,"dy":0.0017,"dx":0.0017,"nx":28,"ny":28,"refTime":"2025-07-03T09:00:00:Z","depth":0,"parameterNumber":2,"parameterNumberName":"U-component_of_WINDS"},"data":[0,0,0,0,0,0,0,0,0,0,0,0,0,0,0,0,0,0,0,0,0,0,0,0,0,0,0,0,0,0,0,0,0,0,0,0,0,0,0,0,0,0,0,0,0,0,0,0,0,0,0,0,0,0,0,0,0,0,2.4558,2.4561,0,2.48,2.4803,2.4806,2.4837,2.4835,2.4832,2.483,2.5082,2.509,2.5099,0,0,0,0,0,0,0,0,0,0,0,0,0,2.4127,2.4134,2.4558,2.4561,2.4564,2.48,2.4803,2.4807,2.4837,2.4834,2.4832,2.4829,2.5079,2.5089,2.51,0,0,0,0,0,0,0,0,0,0,0,0,0,2.4336,2.4137,2.4558,2.4608,2.4615,2.4799,2.4803,2.4807,2.4838,2.4834,2.4831,2.4828,2.5075,2.5088,2.5101,2.5253,0,0,2.5142,2.5148,0,0,0,0,0,0,0,0,2.4324,2.4352,2.4598,2.4605,2.4613,2.4785,2.4743,2.4957,2.4839,2.4753,2.483,2.4826,2.4986,2.5006,2.506,2.5265,2.5276,2.5143,2.5151,2.5157,2.5161,0,0,0,0,0,0,0,2.4309,2.4342,2.4654,2.4601,2.4611,2.462,2.4646,2.4784,2.4886,2.4761,2.4763,2.4791,2.4989,2.5047,2.5066,2.528,2.5143,2.5155,2.5163,2.5168,2.5622,2.5626,0,0,0,0,0,0,2.4285,2.4329,2.4646,2.4661,2.4457,2.463,2.4659,2.4733,2.4885,2.4905,2.4794,2.4792,2.5026,2.505,2.5075,2.5262,2.5157,2.5169,2.5177,2.5618,2.5623,2.5628,0,0,0,0,0,0,2.4276,2.4313,2.4637,2.4496,2.4538,2.4641,2.4724,2.474,2.4797,2.491,2.4929,2.4833,2.5024,2.5056,2.5208,2.5271,2.5175,2.5187,2.5613,2.562,2.5625,2.5638,0,0,0,0,0,0,2.4263,2.431,2.4367,2.4497,2.4545,2.4765,2.4728,2.4747,2.4819,2.4819,2.4952,2.4971,2.5024,2.5188,2.5222,2.5288,2.5198,2.5608,2.5616,2.5623,2.5632,2.5644,2.5653,0,0,0,0,0,2.4248,2.4362,2.437,2.4408,2.462,2.4769,2.4796,2.4853,2.4824,2.4884,2.4957,2.4967,2.5259,2.5204,2.5241,2.5312,2.5604,2.5614,2.5623,2.5627,2.5641,2.5653,0,0,0,0,0,0,2.4238,2.438,2.4391,2.455,2.4647,2.4773,2.485,2.4866,2.4974,2.497,2.5037,2.5067,2.5216,2.528,2.5216,2.5468,2.5429,2.5446,2.542,2.5434,2.5444,2.5425,2.5209,0,0,0,0,0,2.4255,2.4363,2.4481,2.4611,2.4659,2.4746,2.4813,2.4849,2.4952,2.4994,2.5078,2.5179,2.5294,2.5368,2.548,2.5642,2.5672,2.571,2.572,2.5728,2.5742,2.5832,2.585,2.5658,2.5658,2.5657,0,0,2.429,2.4381,2.4445,2.4611,2.469,2.4801,2.478,2.4899,2.4982,2.5012,2.516,2.5226,2.5344,2.5501,2.5575,2.5559,2.5802,2.574,2.5746,2.5755,2.5843,2.5862,2.5878,2.5664,2.5663,2.5662,0,0,2.441,2.449,2.4606,2.4686,2.4805,2.4863,2.4891,2.5016,2.5059,2.5209,2.5234,2.5335,2.5531,2.5614,2.5681,2.5833,2.5846,2.5868,2.5923,2.601,2.6025,2.6039,2.6092,2.611,2.5882,2.5882,2.5882,0,2.4439,2.4606,2.4664,2.4782,2.4854,2.4886,2.5004,2.5079,2.523,2.5279,2.5259,2.5506,2.5587,2.5764,2.5801,2.5856,2.589,2.5852,2.6018,2.6032,2.6046,2.6097,2.6117,2.5884,2.5883,2.5883,2.5883,0,2.4635,2.475,2.483,2.4973,2.5055,2.5172,2.5249,2.5326,2.5355,2.5414,2.5567,2.5666,2.5798,2.5843,2.5873,2.6025,2.6011,2.6004,2.5966,2.6065,2.6114,2.6135,2.5886,2.5885,2.5885,2.5884,0,0,2.4754,2.4928,2.4956,2.5021,2.5156,2.5247,2.5367,2.5494,2.5558,2.5662,2.5763,2.5929,2.5923,2.6,2.604,2.6116,2.6229,2.61,2.6104,2.6119,2.6401,2.6404,2.6426,2.6239,2.6243,2.6247,2.6391,0,2.4888,2.51,2.5156,2.5337,2.5444,2.5476,2.558,2.5675,2.5734,2.5835,2.5902,2.6017,2.6002,2.6048,2.6125,2.6199,2.6286,2.619,2.6335,2.6339,2.6302,2.6452,2.6456,2.6587,2.6411,2.6414,2.6417,0,2.5073,2.5178,2.5368,2.5489,2.5536,2.5629,2.575,2.5847,2.5955,2.5993,2.6079,2.6112,2.6238,2.6195,2.6371,2.6303,2.6367,2.6412,2.6419,2.6433,2.6382,2.6469,2.6631,2.6649,2.6448,2.6445,2.6443,0,2.5139,2.5329,2.5467,2.5522,2.5667,2.5731,2.5794,2.5899,2.5972,2.608,2.6128,2.6249,2.6315,2.6409,2.6474,2.6437,2.6644,2.6606,2.6679,2.6677,2.6719,2.6715,2.6891,2.6763,2.6763,2.6762,2.6762,0,2.5282,2.5396,2.5498,2.5583,2.5713,2.5778,2.5905,2.597,2.6063,2.6162,2.6198,2.629,2.6372,2.6475,2.6527,2.6664,2.6694,2.6729,2.6741,2.6724,2.672,2.6765,2.6757,2.6767,2.6766,2.6765,2.6764,0,2.5376,2.5449,2.5601,2.5726,2.576,2.585,2.5957,2.6041,2.6102,2.6227,2.626,2.6356,2.648,2.6554,2.6712,2.6747,2.6897,2.6907,2.686,2.6865,2.6932,2.6924,2.7142,2.7174,2.7026,2.7027,2.7028,0,2.5461,2.555,2.5684,2.5752,2.5815,2.5925,2.6,2.6068,2.6144,2.6274,2.6343,2.6469,2.6572,2.6769,2.6853,2.6974,2.6985,2.7054,2.7004,2.6984,2.6985,2.6977,2.6986,2.7061,2.7063,2.7064,2.7064,0,2.5604,2.5636,2.5741,2.586,2.5947,2.6044,2.6141,2.6195,2.628,2.6364,2.649,2.6571,2.6731,2.6855,2.6982,2.7049,2.7071,2.708,2.7103,2.7085,2.7054,2.707,2.688,2.7074,2.7073,2.7072,2.7072,2.7071,2.5696,2.5776,2.5882,2.5998,2.6078,2.6168,2.6252,2.6324,2.643,2.6564,2.6599,2.673,2.6838,2.7011,2.7081,2.7186,2.7175,2.7209,2.7217,2.7223,2.7224,2.7039,2.721,2.721,2.721,2.7209,2.7209,0,2.5839,2.5909,2.6015,2.6148,2.624,2.6253,2.6361,2.6436,2.6552,2.6649,2.6751,2.6895,2.7016,2.7111,2.7235,2.7301,2.7314,2.7331,2.7326,2.7341,2.7227,2.7194,2.7318,2.7318,2.7318,2.7318,2.7318,2.7318,2.5924,2.6059,2.6104,2.628,2.635,2.6478,2.6539,2.6622,2.67,2.6859,2.6959,2.702,2.7117,2.7248,2.736,2.7385,2.7428,2.7443,2.7469,2.7361,2.7349,2.7337,2.7307,2.7452,2.7453,2.7574,2.7575,2.7576]},{"header":{"parameterUnit":"m.s-1","parameterCategory":1,"la1":30.2991,"la2":30.254,"lo1":-89.0895,"lo2":-89.0444,"dy":0.0017,"dx":0.0017,"nx":28,"ny":28,"refTime":"2025-07-03T09:00:00:Z","depth":0,"parameterNumber":3,"parameterNumberName":"V-component_of_WINDS"},"data":[0,0,0,0,0,0,0,0,0,0,0,0,0,0,0,0,0,0,0,0,0,0,0,0,0,0,0,0,0,0,0,0,0,0,0,0,0,0,0,0,0,0,0,0,0,0,0,0,0,0,0,0,0,0,0,0,0,0,1.8589,1.8589,0,1.8594,1.8594,1.8594,1.855,1.8549,1.8548,1.8546,1.855,1.8551,1.8553,0,0,0,0,0,0,0,0,0,0,0,0,0,1.8539,1.854,1.8589,1.8589,1.8589,1.8594,1.8594,1.8594,1.855,1.8549,1.8547,1.8546,1.855,1.8551,1.8553,0,0,0,0,0,0,0,0,0,0,0,0,0,1.8554,1.8541,1.8589,1.8568,1.8566,1.8594,1.8594,1.8594,1.8551,1.8549,1.8547,1.8545,1.8549,1.8551,1.8553,1.8601,0,0,1.8559,1.8559,0,0,0,0,0,0,0,0,1.8553,1.8556,1.8571,1.8569,1.8567,1.8569,1.8578,1.8596,1.8551,1.8556,1.8546,1.8544,1.8558,1.8559,1.8564,1.8601,1.8601,1.8559,1.856,1.8561,1.8561,0,0,0,0,0,0,0,1.8552,1.8555,1.8591,1.8571,1.8569,1.8557,1.8557,1.8581,1.8567,1.8556,1.8553,1.8554,1.8557,1.8562,1.8564,1.8601,1.8559,1.856,1.8561,1.8562,1.8673,1.8675,0,0,0,0,0,0,1.8554,1.8555,1.8591,1.8591,1.8556,1.856,1.856,1.8571,1.8567,1.8565,1.8555,1.8552,1.856,1.8562,1.8564,1.8616,1.8561,1.8562,1.8563,1.8672,1.8674,1.8676,0,0,0,0,0,0,1.8553,1.8558,1.8591,1.8572,1.8575,1.8562,1.8575,1.8572,1.8577,1.8567,1.8564,1.8564,1.8559,1.8561,1.8591,1.8616,1.8563,1.8565,1.8669,1.8672,1.8675,1.8725,0,0,0,0,0,0,1.8552,1.8558,1.8577,1.8573,1.8577,1.8619,1.8577,1.8573,1.8581,1.8576,1.8574,1.8572,1.8557,1.8588,1.8593,1.8618,1.8566,1.8667,1.8671,1.8674,1.8721,1.8729,1.8736,0,0,0,0,0,1.8551,1.8591,1.8578,1.8583,1.86,1.8621,1.8623,1.8606,1.8583,1.8601,1.8594,1.8572,1.8613,1.8592,1.8596,1.8622,1.8665,1.867,1.8674,1.8717,1.8727,1.8735,0,0,0,0,0,0,1.8599,1.8591,1.8576,1.8617,1.862,1.8613,1.8636,1.8617,1.8627,1.8622,1.86,1.86,1.8633,1.8631,1.8607,1.8666,1.8635,1.864,1.8666,1.8676,1.8683,1.8682,1.8568,0,0,0,0,0,1.8615,1.8633,1.8624,1.8661,1.8663,1.8649,1.8658,1.8644,1.8646,1.8647,1.8642,1.8645,1.8657,1.8667,1.8679,1.872,1.8717,1.874,1.8747,1.8754,1.8758,1.8776,1.8785,1.8689,1.8689,1.8689,0,0,1.8647,1.8645,1.8658,1.8671,1.8671,1.8689,1.8651,1.8672,1.8684,1.865,1.8678,1.8674,1.8675,1.871,1.8725,1.8709,1.8784,1.8759,1.8764,1.8765,1.8782,1.8791,1.8799,1.8692,1.8692,1.8691,0,0,1.8715,1.8716,1.8745,1.8746,1.8747,1.8737,1.8744,1.874,1.8735,1.8763,1.8736,1.875,1.8774,1.8775,1.8778,1.8843,1.8822,1.8847,1.8886,1.8904,1.8912,1.8918,1.8939,1.8947,1.8852,1.8852,1.8852,0,1.8755,1.8781,1.8762,1.8784,1.8789,1.8759,1.8787,1.8789,1.8794,1.8797,1.8779,1.8806,1.8805,1.8838,1.8854,1.8859,1.8864,1.8847,1.8912,1.8919,1.8925,1.8944,1.8952,1.8855,1.8855,1.8854,1.8854,0,1.8828,1.8847,1.887,1.8874,1.8882,1.8908,1.8891,1.8901,1.8886,1.8878,1.8904,1.8901,1.891,1.8917,1.8904,1.8948,1.8937,1.8916,1.8884,1.8937,1.8954,1.8962,1.8859,1.8858,1.8857,1.8856,0,0,1.8928,1.8919,1.8928,1.8928,1.8926,1.8939,1.8962,1.897,1.8978,1.8982,1.8998,1.9018,1.8998,1.9002,1.8987,1.9004,1.9051,1.898,1.898,1.8992,1.9096,1.911,1.9119,1.9038,1.9039,1.904,1.9095,0,1.8991,1.9029,1.9011,1.9051,1.9066,1.9036,1.9055,1.9055,1.9047,1.9057,1.9048,1.9061,1.9035,1.9037,1.9052,1.9042,1.9072,1.9038,1.9051,1.9052,1.905,1.9129,1.9145,1.9197,1.9102,1.9103,1.9104,0,1.9071,1.9076,1.9117,1.9109,1.9114,1.9132,1.9136,1.9148,1.9146,1.9139,1.9142,1.9123,1.9142,1.9111,1.9136,1.9114,1.9118,1.9114,1.9116,1.9115,1.908,1.9128,1.9214,1.9221,1.9115,1.9114,1.9114,0,1.9135,1.9154,1.9179,1.9181,1.9173,1.9185,1.9182,1.9178,1.9184,1.9187,1.919,1.9197,1.92,1.9204,1.9187,1.9166,1.9213,1.9181,1.9206,1.9206,1.9216,1.9216,1.9302,1.9222,1.9222,1.9222,1.9222,0,1.9207,1.9233,1.9208,1.9224,1.925,1.9229,1.9256,1.9249,1.9246,1.9258,1.9233,1.9246,1.9223,1.9232,1.9219,1.924,1.9242,1.9235,1.9231,1.9237,1.9237,1.9238,1.9233,1.9224,1.9224,1.9223,1.9223,0,1.9284,1.9269,1.9294,1.9284,1.9281,1.9301,1.9291,1.9305,1.9294,1.931,1.9313,1.9296,1.9306,1.9289,1.9297,1.9288,1.9316,1.9308,1.9317,1.9314,1.9338,1.9335,1.9426,1.9436,1.9353,1.9353,1.9354,0,1.933,1.9348,1.9339,1.9345,1.9344,1.9355,1.9359,1.9338,1.9344,1.9341,1.9354,1.9362,1.9366,1.9383,1.9371,1.9376,1.9365,1.9397,1.9366,1.937,1.9363,1.9361,1.9362,1.9403,1.9404,1.9405,1.9405,0,1.9412,1.9403,1.941,1.9414,1.942,1.9423,1.9423,1.943,1.9407,1.9414,1.9423,1.9427,1.9434,1.944,1.9442,1.9438,1.9417,1.9415,1.942,1.9425,1.9429,1.9425,1.9332,1.9413,1.9412,1.9412,1.9411,1.9411,1.9473,1.9487,1.9481,1.949,1.9487,1.9488,1.9499,1.9489,1.9496,1.95,1.9487,1.9498,1.9493,1.9493,1.949,1.9498,1.9484,1.9493,1.9494,1.9496,1.9499,1.9429,1.9498,1.9498,1.9498,1.9498,1.9498,0,1.9551,1.9546,1.9554,1.9554,1.956,1.954,1.9539,1.9545,1.9555,1.9552,1.9557,1.9565,1.9571,1.9559,1.9562,1.957,1.9561,1.9572,1.957,1.9569,1.9513,1.9507,1.9579,1.9579,1.9579,1.9579,1.9579,1.9579,1.9593,1.9614,1.9604,1.9623,1.9617,1.9627,1.9628,1.9627,1.9624,1.9635,1.9639,1.9631,1.9624,1.9626,1.9629,1.9625,1.9627,1.9641,1.9634,1.9581,1.9573,1.9566,1.9559,1.9642,1.9642,1.9688,1.9689,1.9689]}]]